RH
31 30 28 27 27 28 29 29 27 24 22 22 21 21 22 22 22 21 21 20 19 18 18 17 17 17 17 18 19 21 23 23 24 25 27 27 27 27 27 26 24 26 26 26 26 26 26 26 27 26 26 25
33 32 31 29 29 30 31 32 31 27 24 23 22 23 24 25 25 23 22 21 20 19 19 18 18 17 17 17 18 19 20 22 23 24 26 26 27 26 26 25 24 26 27 28 29 29 29 29 30 29 29 28
36 34 33 31 31 32 34 35 35 31 27 25 24 24 26 28 28 26 24 23 21 21 20 20 19 18 17 17 17 18 18 20 21 23 24 24 24 24 23 22 21 22 23 23 25 26 27 27 28 28 29 29
38 37 35 33 33 34 37 39 38 35 32 30 28 27 28 29 29 29 27 25 23 22 21 20 18 18 16 16 16 17 18 18 19 20 21 22 22 22 22 21 20 20 20 20 21 22 23 23 24 24 25 26
43 41 38 36 34 35 38 40 40 38 35 34 33 31 29 30 32 31 29 27 24 21 19 17 15 15 14 14 15 15 16 17 18 18 19 19 20 21 21 21 21 20 19 19 19 20 20 20 22 23 23 24
51 49 45 41 38 36 38 41 41 40 38 36 36 34 32 32 33 33 32 29 25 20 18 16 14 13 13 13 13 14 15 16 18 18 19 18 18 18 18 19 20 19 19 18 18 18 18 18 19 21 23 24
55 58 56 50 45 40 39 42 44 43 42 39 38 36 35 34 34 34 34 30 26 23 19 17 16 15 14 14 14 15 16 18 19 19 19 19 18 17 18 17 17 18 18 18 18 17 17 17 18 19 22 24
56 61 63 61 56 50 43 43 46 46 44 43 41 40 39 38 38 37 36 32 29 27 23 21 20 19 18 17 18 18 18 19 19 20 19 19 19 18 18 18 17 17 17 17 16 16 17 16 16 18 21 23
55 61 66 66 65 63 57 52 50 49 47 46 45 43 42 42 42 42 40 37 33 31 28 25 25 25 22 21 22 23 21 20 20 20 20 19 18 19 19 18 17 17 16 16 15 16 16 16 17 18 21 24
46 54 62 67 69 70 69 66 61 57 52 49 48 46 46 45 46 46 46 43 39 36 33 30 30 31 29 25 26 28 26 24 21 20 20 20 19 19 19 17 17 17 17 17 17 17 17 18 19 20 23 25
36 44 53 63 69 72 74 75 72 67 61 56 53 51 50 48 49 50 50 50 45 40 38 35 35 37 36 31 27 30 31 29 27 24 21 19 20 20 20 19 18 19 19 20 21 22 23 24 25 26 28 29
33 38 44 54 63 68 72 76 78 76 71 67 62 58 56 55 55 54 54 53 48 44 43 42 43 43 42 38 33 33 35 34 34 32 26 21 21 22 23 23 22 23 24 25 27 28 30 31 31 32 32 32
34 35 39 45 54 62 67 71 76 80 79 76 74 70 65 63 62 60 59 56 52 50 50 48 49 48 47 47 44 42 40 39 41 41 37 30 27 26 26 25 25 26 27 28 30 31 33 35 36 36 36 35
39 39 39 41 46 53 61 65 69 76 79 79 80 77 71 69 68 66 65 63 59 57 57 55 53 52 52 53 52 51 46 43 46 48 45 38 35 34 30 28 27 26 25 26 27 27 30 32 33 35 35 36
44 44 44 44 44 46 52 58 63 69 76 77 78 76 73 72 72 72 70 69 67 64 63 62 59 57 56 57 57 57 54 48 48 50 49 45 41 39 36 33 28 26 24 23 24 23 23 24 24 26 27 28
47 47 48 48 48 48 48 52 57 61 69 74 76 76 74 72 72 74 74 72 71 70 68 67 65 63 61 62 64 65 65 60 54 54 55 51 47 43 41 38 29 27 28 25 26 25 23 23 21 21 21 21
49 49 50 51 52 54 53 53 54 56 62 67 71 73 71 70 69 73 77 75 73 73 72 70 68 67 65 66 70 71 73 71 64 61 58 54 54 50 45 41 31 29 33 29 28 28 26 25 24 23 23 22
52 52 52 53 54 56 56 56 57 57 60 62 65 67 68 68 66 69 76 77 76 75 74 73 71 70 69 68 71 73 76 77 71 67 62 56 58 57 48 43 36 32 36 35 31 30 31 31 30 30 29 29
55 57 57 57 57 57 58 59 60 60 61 62 63 64 66 68 65 66 73 76 77 77 75 76 75 73 72 71 72 74 76 79 76 71 67 59 59 61 53 47 41 37 39 40 35 34 36 38 38 37 38 37
53 57 61 63 62 62 62 62 63 64 64 65 65 65 65 67 66 65 71 76 77 77 76 75 77 76 75 74 74 74 76 78 77 73 71 67 64 64 58 53 48 43 44 45 41 40 41 43 43 42 42 42
52 56 60 65 67 68 68 68 68 68 67 67 68 68 68 68 68 68 72 76 76 76 75 75 77 77 77 76 75 75 76 78 77 74 74 73 71 68 63 58 54 48 47 48 46 44 45 48 48 47 47 47
51 54 57 62 67 71 73 74 74 74 73 72 71 71 71 70 70 70 72 74 76 76 75 74 75 76 77 76 74 76 77 77 78 76 74 74 73 72 67 62 59 53 49 53 53 50 49 50 49 49 50 49
50 52 54 57 60 66 71 75 78 80 81 79 77 75 74 73 72 73 73 74 76 77 77 76 74 75 77 74 72 74 76 77 78 76 71 71 70 70 71 68 61 54 53 56 55 51 48 49 49 50 51 50
48 50 51 53 55 58 61 65 71 78 84 88 87 84 80 78 75 74 75 75 76 77 78 79 77 76 77 74 70 71 74 74 75 74 68 68 68 67 70 68 57 52 56 58 57 56 52 48 49 51 52 51
42 44 46 48 51 53 54 55 59 63 71 81 91 94 91 88 84 81 78 76 76 77 78 80 80 79 78 75 71 69 72 73 74 74 70 70 71 66 63 61 57 56 59 60 58 57 53 48 48 51 52 51
37 37 38 40 42 45 48 50 53 55 56 62 76 91 97 97 95 92 88 85 81 79 77 78 81 81 80 78 72 68 71 73 74 75 72 71 70 62 55 58 62 59 57 55 53 58 61 57 52 52 53 53
34 32 30 32 33 34 38 42 46 50 52 52 56 68 83 96 101 100 97 96 93 89 84 80 81 82 82 82 76 69 69 73 74 73 72 69 66 62 56 59 63 57 52 51 56 67 66 55 54 56 53 51
27 25 23 23 24 26 28 32 35 40 48 53 52 50 58 75 92 100 100 100 100 98 95 91 87 85 83 83 81 74 69 71 74 74 72 69 68 66 60 58 60 55 51 51 57 65 62 58 61 59 52 51
16 16 17 15 16 19 20 24 26 28 34 45 55 54 46 49 66 85 94 98 100 100 99 99 96 93 89 86 85 79 73 72 73 74 74 71 69 66 60 59 60 57 54 52 56 63 66 66 63 58 59 61
13 13 16 17 16 15 14 17 20 20 21 30 47 58 54 45 45 60 78 89 95 98 99 100 100 99 96 92 88 82 78 77 76 75 74 72 70 67 63 65 65 60 57 58 63 70 70 67 66 69 73 68
23 27 30 33 32 26 22 19 17 17 16 17 31 51 61 56 45 44 59 75 85 92 96 99 100 100 100 97 93 88 84 82 80 79 77 74 72 70 68 68 66 61 59 60 64 69 69 66 66 70 74 69
Wind_Speed
24 24 25 26 25 25 25 25 26 28 28 27 26 24 23 22 22 22 21 21 21 21 21 21 21 22 22 22 23 23 24 23 23 23 23 24 24 25 25 25 23 23 25 24 24 27 26 26 26 26 26 26
24 24 25 26 26 26 25 25 26 28 29 28 27 25 24 23 23 23 22 22 22 22 22 23 24 24 25 25 25 26 26 26 26 26 25 26 26 26 26 26 24 23 25 24 24 27 27 26 26 26 26 27
23 24 25 26 26 26 25 25 26 27 28 28 28 26 25 24 24 24 24 24 23 24 24 25 26 26 27 27 28 28 29 29 29 29 29 28 28 28 28 28 26 25 25 24 25 27 28 27 26 26 27 27
24 24 25 27 27 26 25 25 26 27 27 28 28 27 26 25 25 25 25 25 25 26 26 27 28 28 28 29 29 30 30 30 30 31 31 31 31 30 30 30 28 27 26 26 26 28 28 27 27 27 27 28
24 24 25 27 28 27 26 25 26 27 28 28 28 28 27 26 26 27 26 26 27 27 28 28 29 29 30 30 30 31 31 31 31 31 31 32 32 32 32 32 31 30 28 28 28 29 29 28 28 28 28 28
23 24 25 27 28 29 28 26 27 28 28 28 29 29 28 28 28 28 28 28 28 28 28 29 29 30 30 30 30 31 31 31 32 32 32 32 32 33 33 32 32 31 29 29 30 30 29 29 29 29 29 29
23 23 24 26 29 30 29 27 27 28 28 29 29 30 30 29 30 30 30 30 29 29 29 29 30 30 30 30 30 31 31 31 31 32 32 32 33 33 33 33 32 31 30 31 31 31 31 30 30 30 30 29
24 24 25 26 28 29 29 29 28 27 27 28 29 30 31 31 31 31 32 32 31 30 30 29 29 30 31 30 30 30 30 30 30 31 32 32 32 32 32 33 32 31 31 31 32 32 32 32 31 31 31 31
27 26 27 28 28 28 29 30 29 28 28 28 28 29 31 32 32 33 34 34 33 31 31 30 29 30 31 30 29 29 30 30 30 30 30 31 31 31 32 32 31 31 31 31 32 32 32 32 32 32 32 32
32 31 30 29 28 29 29 30 30 30 29 29 28 29 31 33 34 34 35 36 34 33 33 32 30 30 31 30 29 29 30 30 30 30 30 29 29 29 30 31 30 30 30 30 30 31 31 32 32 32 32 32
36 36 34 32 31 31 30 30 30 31 32 30 30 30 31 33 34 34 35 35 34 34 35 34 31 31 31 31 30 29 30 30 29 30 30 29 28 28 29 30 29 29 29 29 29 29 30 30 31 31 31 31
39 39 38 37 35 35 34 32 32 32 33 32 33 33 33 33 34 33 34 35 35 35 36 36 34 32 32 32 31 30 30 30 29 29 30 30 29 28 28 29 28 28 28 28 28 28 28 29 30 30 30 30
41 41 41 41 40 39 38 37 35 35 34 34 35 35 36 35 34 33 33 35 36 35 36 37 36 35 33 33 33 32 31 30 29 29 30 30 29 28 27 28 27 27 27 27 27 27 27 28 29 29 29 29
41 43 43 43 44 43 43 41 40 40 39 38 38 39 39 38 36 35 34 34 35 35 36 37 38 37 35 34 34 34 33 31 29 29 30 30 29 28 28 27 27 28 27 27 27 27 27 28 28 28 28 28
42 43 44 45 46 47 47 46 45 45 43 43 43 43 43 41 40 38 37 36 35 35 36 37 38 39 38 37 36 35 34 33 31 30 30 30 30 29 29 28 29 29 28 27 27 27 27 28 28 28 28 28
42 44 45 47 48 49 50 50 50 49 48 47 47 48 47 46 44 42 41 40 38 38 37 37 39 40 40 39 38 36 35 35 34 32 32 32 31 31 30 30 30 29 28 28 27 28 28 28 28 28 28 29
40 44 46 48 49 50 51 52 53 52 52 51 51 52 52 50 49 46 44 44 43 41 40 39 40 41 41 41 40 38 37 36 37 36 35 33 32 32 31 31 31 29 29 29 29 29 29 28 28 29 29 29
36 40 44 48 50 51 52 53 54 55 55 55 55 56 55 55 54 51 48 47 47 46 44 42 42 43 42 42 42 41 39 38 39 38 37 36 34 33 33 32 32 31 30 30 31 30 29 29 29 29 29 29
32 34 38 43 48 51 53 54 55 57 57 58 58 58 58 58 58 55 53 52 51 51 49 46 45 45 44 44 44 44 42 41 41 41 40 38 36 35 34 34 33 33 32 32 32 32 31 31 31 30 30 29
32 32 33 36 41 46 50 54 56 58 59 60 60 60 61 61 61 59 56 56 55 55 54 52 49 48 47 46 46 46 45 44 43 43 42 41 39 37 36 35 35 34 34 34 34 34 33 32 32 32 31 30
34 33 33 33 35 38 42 48 53 57 59 61 62 62 63 63 63 62 60 60 59 59 58 56 54 52 51 50 49 48 47 47 46 46 45 44 42 40 38 38 37 37 36 35 36 36 35 34 34 34 33 33
38 36 35 34 34 34 36 40 44 50 55 60 62 63 64 65 65 64 64 63 62 61 61 59 58 56 55 55 53 51 51 50 49 49 48 47 45 43 42 41 40 39 38 37 37 38 38 37 37 37 36 36
41 40 39 37 36 35 35 36 38 41 46 52 57 61 64 65 66 66 66 65 64 63 63 62 61 60 59 59 57 55 55 54 53 52 52 50 48 46 45 44 43 41 40 40 40 40 40 40 40 39 39 38
43 43 42 41 39 38 37 37 38 38 40 44 48 54 59 63 66 67 67 67 66 65 65 65 64 63 62 62 61 60 59 58 56 55 54 52 50 49 48 46 44 43 43 43 43 42 43 43 42 41 41 40
47 47 47 46 44 42 40 40 40 39 39 40 43 46 51 56 60 64 66 67 68 67 67 67 67 66 66 65 65 63 62 60 59 57 56 54 53 52 50 48 47 46 46 46 45 45 46 45 44 43 43 42
53 53 53 53 51 49 47 44 43 42 42 42 42 42 45 48 52 56 60 63 66 68 69 69 69 69 68 68 67 66 64 63 61 60 59 58 57 55 52 51 51 50 49 48 47 47 47 47 46 45 44 44
61 61 60 60 60 58 55 52 49 47 46 45 44 42 43 45 47 49 51 54 58 62 66 68 69 70 70 70 70 69 67 66 64 63 62 61 59 57 55 54 54 52 51 50 49 49 49 49 48 48 47 46
69 68 67 67 67 66 64 61 58 54 51 49 48 45 43 44 45 46 46 47 48 51 57 62 65 68 70 70 71 71 69 67 66 64 64 63 61 59 58 57 57 54 53 52 51 51 51 50 50 50 49 48
68 68 68 68 69 70 70 67 65 62 59 55 53 50 46 43 43 45 46 46 45 44 47 51 55 61 66 69 70 71 70 68 67 66 65 64 63 61 60 59 59 56 55 53 52 52 52 52 51 50 49 49
60 59 59 59 62 66 69 68 67 65 62 60 57 54 51 47 44 43 45 46 46 45 44 44 46 52 58 65 69 69 69 68 67 67 66 66 65 63 62 61 60 58 56 55 54 53 53 53 52 51 50 50
49 48 48 50 53 57 60 61 61 60 59 59 58 57 55 51 47 44 45 46 46 46 46 45 44 45 48 55 63 66 67 67 67 67 67 67 66 64 63 62 61 59 58 56 55 54 53 54 54 53 52 52
Wind_Direction
258 257 255 255 257 260 261 261 259 256 254 252 251 249 248 249 248 247 245 245 245 247 249 250 250 250 249 247 246 246 245 245 245 244 244 245 244 244 242 238 233 224 225 228 231 236 236 234 234 234 235 235
257 255 253 253 255 258 260 261 260 257 255 253 252 251 251 253 254 253 251 249 249 249 251 253 253 252 251 249 247 247 246 245 245 244 244 245 245 245 245 243 237 231 231 231 232 237 239 238 238 238 238 238
259 256 253 251 253 255 258 260 260 258 255 253 251 250 251 252 254 255 255 254 252 252 253 255 256 255 253 252 250 248 248 246 245 245 244 245 245 245 246 246 241 237 236 235 235 239 242 240 240 241 242 242
260 257 254 252 251 253 254 256 258 257 255 253 251 250 250 251 253 254 255 256 256 256 256 257 257 257 256 255 254 252 250 250 248 247 247 247 247 247 247 247 245 241 238 238 237 240 243 244 244 244 245 245
259 257 255 253 252 252 252 253 256 257 254 253 252 250 250 250 252 254 255 256 258 259 259 258 258 257 257 255 255 254 253 252 251 250 250 249 249 249 249 249 248 246 243 241 241 241 243 244 245 246 247 247
257 258 256 254 252 250 250 251 253 255 254 253 253 252 251 251 253 255 256 257 259 260 259 258 257 256 256 254 254 254 253 252 252 252 251 251 251 252 252 252 251 250 249 247 246 245 245 245 246 247 247 248
250 254 255 253 252 250 248 247 248 251 253 253 253 254 253 253 254 256 258 258 258 259 258 257 256 255 254 253 253 252 252 252 252 252 251 252 252 253 254 254 253 253 252 251 250 250 249 248 248 249 250 250
241 246 250 250 251 251 249 247 246 247 250 252 253 253 254 254 255 257 258 258 258 258 258 257 256 255 253 252 252 251 251 251 250 251 251 251 251 253 254 254 254 253 252 252 251 251 250 250 249 250 251 252
234 238 243 245 248 250 251 249 247 246 247 249 251 252 254 255 256 257 258 258 258 259 260 259 258 257 254 251 249 250 250 250 250 250 250 250 250 251 252 253 253 253 252 251 251 251 250 249 249 249 250 252
234 232 236 241 244 246 248 248 248 247 246 246 248 250 252 253 255 256 258 259 259 260 261 261 259 258 256 253 249 248 249 249 249 249 249 249 250 250 251 251 251 251 250 250 250 250 250 249 249 249 250 251
240 234 232 234 239 242 243 245 246 247 247 247 247 247 249 251 254 256 257 259 260 260 262 263 261 260 259 256 252 249 249 249 249 249 249 248 248 249 250 251 251 251 250 249 249 249 249 249 249 249 250 251
246 240 235 232 233 237 239 241 244 246 246 247 248 246 247 250 252 254 256 258 259 260 261 263 263 261 261 259 256 252 250 249 249 249 250 248 247 247 248 250 251 251 251 250 249 249 249 249 249 249 249 250
250 246 241 235 232 233 235 237 239 243 244 244 246 245 245 248 249 250 252 255 257 257 259 261 262 262 261 261 259 256 253 250 249 249 250 250 249 248 248 249 250 250 250 251 250 250 249 250 250 250 250 251
250 248 246 241 237 234 234 233 235 238 240 241 243 244 244 245 246 247 248 250 253 253 255 257 259 260 260 260 259 258 256 254 252 250 250 251 251 250 250 250 250 250 249 249 251 251 251 251 252 252 252 252
250 248 247 245 243 240 237 235 234 234 236 238 240 243 243 243 243 244 245 246 247 248 249 251 253 256 257 258 258 259 259 257 255 252 251 251 250 250 250 251 251 251 251 251 251 252 252 252 253 253 254 253
250 249 247 247 246 244 241 239 237 235 234 234 236 239 240 240 239 240 242 243 243 244 244 245 247 250 252 253 255 257 258 259 257 254 251 249 249 249 250 251 252 252 254 253 253 252 252 252 253 253 253 253
251 250 248 247 246 245 245 243 240 238 236 235 234 236 236 237 236 235 238 241 241 241 241 241 242 244 246 248 250 252 253 255 255 254 251 249 248 248 249 250 251 252 253 254 253 253 253 253 253 253 253 253
253 251 249 248 247 246 245 244 243 241 239 237 236 236 236 236 235 232 233 237 239 240 239 239 240 240 242 244 245 247 247 249 251 252 251 249 248 248 248 249 250 250 251 253 253 253 254 255 255 254 254 254
258 254 252 250 249 247 246 244 244 243 242 240 239 238 237 237 236 233 231 232 235 237 237 236 238 239 239 241 242 243 243 244 247 249 250 249 248 248 247 247 249 250 251 253 254 255 255 256 256 256 256 257
269 264 259 254 251 250 248 246 245 244 243 242 241 240 239 239 238 235 233 233 233 234 235 234 235 236 237 237 239 241 241 241 243 245 247 248 247 247 247 248 249 250 251 253 255 257 257 257 259 260 260 260
279 277 272 267 260 254 252 250 248 246 244 243 242 241 241 241 241 239 236 235 234 234 234 233 233 234 235 235 235 237 238 239 241 242 244 245 246 246 247 248 249 250 251 253 256 258 259 259 260 262 263 263
282 282 281 279 275 268 261 256 253 250 248 246 244 243 242 242 242 241 240 238 236 235 234 234 233 233 235 235 234 234 235 237 238 240 241 243 244 244 245 247 248 251 254 255 257 259 260 260 261 262 263 264
282 282 281 281 282 281 277 270 263 258 254 251 248 245 244 243 242 242 242 241 240 238 237 236 234 233 234 235 234 233 233 235 236 237 239 240 242 243 244 246 248 251 254 255 257 259 261 261 260 261 262 264
283 282 281 279 279 279 281 280 276 270 264 258 254 250 247 244 243 243 242 243 242 241 240 239 237 235 234 235 235 234 233 234 235 237 238 240 241 242 243 245 248 250 252 254 255 257 259 260 260 261 262 264
286 285 283 281 279 278 278 279 279 278 274 269 262 258 253 249 246 244 243 243 242 241 241 241 240 238 236 235 236 235 234 234 235 236 238 239 241 242 243 245 247 249 251 252 254 256 258 260 261 261 262 264
289 289 287 285 283 281 279 278 279 279 278 276 271 265 260 256 252 248 245 243 242 241 240 240 241 240 239 237 236 236 235 234 234 235 236 237 239 240 242 244 245 247 249 251 253 255 257 259 260 261 261 262
292 291 290 288 286 284 282 281 280 280 279 278 276 272 268 263 259 255 250 247 244 242 240 239 239 239 239 238 237 236 235 233 233 234 235 236 238 239 241 243 244 245 248 250 251 252 255 258 260 260 261 262
297 295 293 290 288 286 284 282 281 281 280 277 275 274 273 270 267 263 259 255 251 247 243 241 239 238 238 238 237 236 235 234 233 234 234 236 237 239 241 242 244 245 247 249 250 251 254 257 259 260 263 264
301 299 296 293 289 285 284 283 282 281 280 278 275 273 272 272 271 269 267 263 260 255 249 246 241 238 236 236 236 236 235 234 233 233 234 236 237 238 240 242 244 245 247 249 250 251 253 255 258 261 263 264
302 299 297 295 292 287 284 282 281 281 279 277 274 271 270 271 271 269 268 268 265 261 255 251 246 240 236 234 234 235 234 233 233 233 235 236 237 238 240 241 243 245 247 248 248 249 252 254 257 259 259 262
301 300 298 297 294 291 288 284 280 278 276 274 271 269 267 267 269 268 267 267 267 264 260 255 249 244 238 234 233 232 232 231 231 233 234 235 237 238 239 240 243 245 246 246 247 248 251 254 256 257 257 261